Time,TemperatureF,DewpointF,PressureIn,WindDirection,WindDirectionDegrees,WindSpeedMPH,WindSpeedGustMPH,Humidity,HourlyPrecipIn,Conditions,Clouds,dailyrainin,SoftwareType,DateUTC
2013-04-11 00:03:00,30.0,-99.9,-100.00,North,11,6.0,-999.0,0,-99.99,,,-99.99,,2013-04-11 05:03:00,
2013-04-11 00:13:00,30.0,-99.9,-100.00,South,173,5.0,-999.0,0,-99.99,,,-99.99,,2013-04-11 05:13:00,
2013-04-11 00:23:00,30.0,-99.9,-100.00,North,8,6.0,-999.0,0,-99.99,,,-99.99,,2013-04-11 05:23:00,
2013-04-11 00:32:00,30.0,-99.9,-100.00,North,8,6.0,-999.0,0,-99.99,,,-99.99,,2013-04-11 05:32:00,
2013-04-11 00:42:00,30.0,-99.9,-100.00,North,5,6.0,-999.0,0,-99.99,,,-99.99,,2013-04-11 05:42:00,
2013-04-11 00:52:00,30.0,-99.9,-100.00,North,7,6.0,-999.0,0,-99.99,,,-99.99,,2013-04-11 05:52:00,
2013-04-11 01:02:00,30.0,-99.9,-100.00,North,3,7.0,-999.0,0,-99.99,,,-99.99,,2013-04-11 06:02:00,
2013-04-11 01:12:00,30.0,-99.9,-100.00,NNE,13,7.0,-999.0,0,-99.99,,,-99.99,,2013-04-11 06:12:00,
2013-04-11 01:22:00,30.0,-99.9,-100.00,North,7,7.0,-999.0,0,-99.99,,,-99.99,,2013-04-11 06:22:00,
2013-04-11 01:32:00,30.0,-99.9,-100.00,NNE,15,6.0,-999.0,0,-99.99,,,-99.99,,2013-04-11 06:32:00,
2013-04-11 01:42:00,30.0,-99.9,-100.00,NNE,15,6.0,-999.0,0,-99.99,,,-99.99,,2013-04-11 06:42:00,
2013-04-11 01:53:00,30.0,-99.9,-100.00,NNE,13,7.0,-999.0,0,-99.99,,,-99.99,,2013-04-11 06:53:00,
2013-04-11 02:03:00,30.0,-99.9,-100.00,North,7,6.0,-999.0,0,-99.99,,,-99.99,,2013-04-11 07:03:00,
2013-04-11 02:12:00,30.0,-99.9,-100.00,North,11,7.0,-999.0,0,-99.99,,,-99.99,,2013-04-11 07:12:00,
2013-04-11 02:22:00,30.0,-99.9,-100.00,NNE,16,7.0,-999.0,0,-99.99,,,-99.99,,2013-04-11 07:22:00,
2013-04-11 02:32:00,30.0,-99.9,-100.00,NNE,21,7.0,-999.0,0,-99.99,,,-99.99,,2013-04-11 07:32:00,
2013-04-11 02:43:00,30.0,-99.9,-100.00,NNE,17,7.0,-999.0,0,-99.99,,,-99.99,,2013-04-11 07:43:00,
2013-04-11 02:52:00,29.0,-99.9,-100.00,North,9,8.0,-999.0,0,-99.99,,,-99.99,,2013-04-11 07:52:00,
2013-04-11 03:03:00,29.0,-99.9,-100.00,NNE,15,8.0,-999.0,0,-99.99,,,-99.99,,2013-04-11 08:03:00,
2013-04-11 03:12:00,29.0,-99.9,-100.00,NNE,25,8.0,-999.0,0,-99.99,,,-99.99,,2013-04-11 08:12:00,
2013-04-11 03:22:00,29.0,-99.9,-100.00,NNE,22,8.0,-999.0,0,-99.99,,,-99.99,,2013-04-11 08:22:00,
2013-04-11 03:33:00,29.0,-99.9,-100.00,NNE,22,8.0,-999.0,0,-99.99,,,-99.99,,2013-04-11 08:33:00,
2013-04-11 03:43:00,29.0,-99.9,-100.00,NNE,25,7.0,-999.0,0,-99.99,,,-99.99,,2013-04-11 08:43:00,
2013-04-11 03:52:00,29.0,-99.9,-100.00,NE,38,7.0,-999.0,0,-99.99,,,-99.99,,2013-04-11 08:52:00,
2013-04-11 04:02:00,29.0,-99.9,-100.00,NNE,27,7.0,-999.0,0,-99.99,,,-99.99,,2013-04-11 09:02:00,
2013-04-11 04:12:00,29.0,-99.9,-100.00,NNE,32,6.0,-999.0,0,-99.99,,,-99.99,,2013-04-11 09:12:00,
2013-04-11 04:22:00,29.0,-99.9,-100.00,NNE,31,6.0,-999.0,0,-99.99,,,-99.99,,2013-04-11 09:22:00,
2013-04-11 04:33:00,29.0,-99.9,-100.00,NE,40,7.0,-999.0,0,-99.99,,,-99.99,,2013-04-11 09:33:00,
2013-04-11 04:43:00,29.0,-99.9,-100.00,NE,40,7.0,-999.0,0,-99.99,,,-99.99,,2013-04-11 09:43:00,
2013-04-11 04:53:00,28.0,-99.9,-100.00,NNE,18,6.0,-999.0,0,-99.99,,,-99.99,,2013-04-11 09:53:00,
2013-04-11 05:03:00,28.0,-99.9,-100.00,NNE,22,8.0,-999.0,0,-99.99,,,-99.99,,2013-04-11 10:03:00,
2013-04-11 05:13:00,28.0,-99.9,-100.00,NE,37,6.0,-999.0,0,-99.99,,,-99.99,,2013-04-11 10:13:00,
2013-04-11 05:23:00,28.0,-99.9,-100.00,NE,38,8.0,-999.0,0,-99.99,,,-99.99,,2013-04-11 10:23:00,
2013-04-11 05:33:00,28.0,-99.9,-100.00,NE,39,6.0,-999.0,0,-99.99,,,-99.99,,2013-04-11 10:33:00,
2013-04-11 05:42:00,28.0,-99.9,-100.00,NE,39,6.0,-999.0,0,-99.99,,,-99.99,,2013-04-11 10:42:00,
2013-04-11 05:53:00,28.0,-99.9,-100.00,NE,42,5.0,-999.0,0,-99.99,,,-99.99,,2013-04-11 10:53:00,
2013-04-11 06:03:00,28.0,-99.9,-100.00,NE,42,5.0,-999.0,0,-99.99,,,-99.99,,2013-04-11 11:03:00,
2013-04-11 06:13:00,28.0,-99.9,-100.00,NE,43,5.0,-999.0,0,-99.99,,,-99.99,,2013-04-11 11:13:00,
2013-04-11 06:23:00,28.0,-99.9,-100.00,NNE,32,5.0,-999.0,0,-99.99,,,-99.99,,2013-04-11 11:23:00,
2013-04-11 06:32:00,28.0,-99.9,-100.00,NNE,31,5.0,-999.0,0,-99.99,,,-99.99,,2013-04-11 11:32:00,
2013-04-11 06:43:00,28.0,-99.9,-100.00,NE,40,6.0,-999.0,0,-99.99,,,-99.99,,2013-04-11 11:43:00,
2013-04-11 06:53:00,28.0,-99.9,-100.00,NNE,30,5.0,-999.0,0,-99.99,,,-99.99,,2013-04-11 11:53:00,
2013-04-11 07:02:00,29.0,-99.9,-100.00,NNE,25,5.0,-999.0,0,-99.99,,,-99.99,,2013-04-11 12:02:00,
2013-04-11 07:13:00,29.0,-99.9,-100.00,NE,39,6.0,-999.0,0,-99.99,,,-99.99,,2013-04-11 12:13:00,
2013-04-11 07:23:00,29.0,-99.9,-100.00,NNE,29,5.0,-999.0,0,-99.99,,,-99.99,,2013-04-11 12:23:00,
2013-04-11 07:32:00,29.0,-99.9,-100.00,NNE,24,6.0,-999.0,0,-99.99,,,-99.99,,2013-04-11 12:32:00,
2013-04-11 07:43:00,29.0,-99.9,-100.00,NNE,33,7.0,-999.0,0,-99.99,,,-99.99,,2013-04-11 12:43:00,
2013-04-11 07:53:00,29.0,-99.9,-100.00,NNE,27,6.0,-999.0,0,-99.99,,,-99.99,,2013-04-11 12:53:00,
2013-04-11 08:03:00,29.0,-99.9,-100.00,NNE,21,5.0,-999.0,0,-99.99,,,-99.99,,2013-04-11 13:03:00,
2013-04-11 08:13:00,29.0,-99.9,-100.00,NNE,26,6.0,-999.0,0,-99.99,,,-99.99,,2013-04-11 13:13:00,
2013-04-11 08:23:00,29.0,-99.9,-100.00,NNE,24,6.0,-999.0,0,-99.99,,,-99.99,,2013-04-11 13:23:00,
2013-04-11 08:33:00,29.0,-99.9,-100.00,NNE,26,5.0,-999.0,0,-99.99,,,-99.99,,2013-04-11 13:33:00,
2013-04-11 08:43:00,29.0,-99.9,-100.00,NE,47,6.0,-999.0,0,-99.99,,,-99.99,,2013-04-11 13:43:00,
2013-04-11 08:54:00,29.0,-99.9,-100.00,NNE,28,5.0,-999.0,0,-99.99,,,-99.99,,2013-04-11 13:54:00,
2013-04-11 09:03:00,29.0,-99.9,-100.00,NE,34,4.0,-999.0,0,-99.99,,,-99.99,,2013-04-11 14:03:00,
2013-04-11 09:13:00,30.0,-99.9,-100.00,NNE,25,5.0,-999.0,0,-99.99,,,-99.99,,2013-04-11 14:13:00,
2013-04-11 09:22:00,30.0,-99.9,-100.00,NE,34,6.0,-999.0,0,-99.99,,,-99.99,,2013-04-11 14:22:00,
2013-04-11 09:33:00,30.0,-99.9,-100.00,NE,48,5.0,-999.0,0,-99.99,,,-99.99,,2013-04-11 14:33:00,
2013-04-11 09:43:00,30.0,-99.9,-100.00,NE,47,4.0,-999.0,0,-99.99,,,-99.99,,2013-04-11 14:43:00,
2013-04-11 09:53:00,30.0,-99.9,-100.00,NNE,28,5.0,-999.0,0,-99.99,,,-99.99,,2013-04-11 14:53:00,
2013-04-11 10:03:00,30.0,-99.9,-100.00,NE,45,6.0,-999.0,0,-99.99,,,-99.99,,2013-04-11 15:03:00,
2013-04-11 10:12:00,30.0,-99.9,-100.00,NE,45,6.0,-999.0,0,-99.99,,,-99.99,,2013-04-11 15:12:00,
2013-04-11 10:22:00,30.0,-99.9,-100.00,NE,45,6.0,-999.0,0,-99.99,,,-99.99,,2013-04-11 15:22:00,
2013-04-11 11:53:00,33.0,-99.9,-100.00,ESE,102,11.0,-999.0,0,-99.99,,,-99.99,,2013-04-11 16:53:00,
2013-04-11 12:03:00,33.0,-99.9,-100.00,NNE,31,10.0,-999.0,0,-99.99,,,-99.99,,2013-04-11 17:03:00,
2013-04-11 12:13:00,33.0,-99.9,-100.00,NNE,23,13.0,-999.0,0,-99.99,,,-99.99,,2013-04-11 17:13:00,
2013-04-11 12:23:00,33.0,-99.9,-100.00,NNE,25,13.0,-999.0,0,-99.99,,,-99.99,,2013-04-11 17:23:00,
2013-04-11 12:33:00,33.0,-99.9,-100.00,NNE,25,13.0,-999.0,0,-99.99,,,-99.99,,2013-04-11 17:33:00,
2013-04-11 12:43:00,33.0,-99.9,-100.00,NNE,15,15.0,-999.0,0,-99.99,,,-99.99,,2013-04-11 17:43:00,
2013-04-11 12:53:00,34.0,-99.9,-100.00,NNE,20,14.0,-999.0,0,-99.99,,,-99.99,,2013-04-11 17:53:00,
2013-04-11 13:03:00,34.0,-99.9,-100.00,NNE,16,11.0,-999.0,0,-99.99,,,-99.99,,2013-04-11 18:03:00,
2013-04-11 13:13:00,34.0,-99.9,-100.00,NNE,31,9.0,-999.0,0,-99.99,,,-99.99,,2013-04-11 18:13:00,
2013-04-11 13:23:00,34.0,-99.9,-100.00,NNE,22,12.0,-999.0,0,-99.99,,,-99.99,,2013-04-11 18:23:00,
2013-04-11 13:33:00,34.0,-99.9,-100.00,NE,35,12.0,-999.0,0,-99.99,,,-99.99,,2013-04-11 18:33:00,
2013-04-11 13:43:00,34.0,-99.9,-100.00,NNE,19,15.0,-999.0,0,-99.99,,,-99.99,,2013-04-11 18:43:00,
2013-04-11 13:53:00,34.0,-99.9,-100.00,NNE,20,16.0,-999.0,0,-99.99,,,-99.99,,2013-04-11 18:53:00,
2013-04-11 14:04:00,34.0,-99.9,-100.00,NNE,20,16.0,-999.0,0,-99.99,,,-99.99,,2013-04-11 19:04:00,
2013-04-11 14:14:00,34.0,-99.9,-100.00,North,10,17.0,-999.0,0,-99.99,,,-99.99,,2013-04-11 19:14:00,
2013-04-11 14:23:00,34.0,-99.9,-100.00,North,7,18.0,-999.0,0,-99.99,,,-99.99,,2013-04-11 19:23:00,
2013-04-11 14:33:00,34.0,-99.9,-100.00,NNE,14,18.0,-999.0,0,-99.99,,,-99.99,,2013-04-11 19:33:00,
2013-04-11 14:43:00,33.0,-99.9,-100.00,NNE,22,19.0,-999.0,0,-99.99,,,-99.99,,2013-04-11 19:43:00,
2013-04-11 14:53:00,34.0,-99.9,-100.00,NNE,12,15.0,-999.0,0,-99.99,,,-99.99,,2013-04-11 19:53:00,
2013-04-11 15:03:00,34.0,-99.9,-100.00,North,9,20.0,-999.0,0,-99.99,,,-99.99,,2013-04-11 20:03:00,
2013-04-11 15:13:00,34.0,-99.9,-100.00,NNE,12,16.0,-999.0,0,-99.99,,,-99.99,,2013-04-11 20:13:00,
2013-04-11 15:22:00,34.0,-99.9,-100.00,NNE,13,16.0,-999.0,0,-99.99,,,-99.99,,2013-04-11 20:22:00,
2013-04-11 15:34:00,34.0,-99.9,-100.00,NNE,13,17.0,-999.0,0,-99.99,,,-99.99,,2013-04-11 20:34:00,
2013-04-11 15:43:00,34.0,-99.9,-100.00,NNE,20,17.0,-999.0,0,-99.99,,,-99.99,,2013-04-11 20:43:00,
2013-04-11 15:53:00,33.0,-99.9,-100.00,NNE,17,17.0,-999.0,0,-99.99,,,-99.99,,2013-04-11 20:53:00,
2013-04-11 16:03:00,33.0,-99.9,-100.00,North,7,15.0,-999.0,0,-99.99,,,-99.99,,2013-04-11 21:03:00,
2013-04-11 16:13:00,33.0,-99.9,-100.00,NNE,19,19.0,-999.0,0,-99.99,,,-99.99,,2013-04-11 21:13:00,
2013-04-11 16:23:00,33.0,-99.9,-100.00,North,7,16.0,-999.0,0,-99.99,,,-99.99,,2013-04-11 21:23:00,
2013-04-11 16:33:00,33.0,-99.9,-100.00,NNE,12,19.0,-999.0,0,-99.99,,,-99.99,,2013-04-11 21:33:00,
2013-04-11 16:43:00,33.0,-99.9,-100.00,North,11,20.0,-999.0,0,-99.99,,,-99.99,,2013-04-11 21:43:00,
2013-04-11 16:54:00,33.0,-99.9,-100.00,NNE,16,20.0,-999.0,0,-99.99,,,-99.99,,2013-04-11 21:54:00,
2013-04-11 17:03:00,33.0,-99.9,-100.00,NNE,15,17.0,-999.0,0,-99.99,,,-99.99,,2013-04-11 22:03:00,
2013-04-11 17:14:00,33.0,-99.9,-100.00,NNE,12,17.0,-999.0,0,-99.99,,,-99.99,,2013-04-11 22:14:00,
2013-04-11 17:23:00,33.0,-99.9,-100.00,North,10,13.0,-999.0,0,-99.99,,,-99.99,,2013-04-11 22:23:00,
2013-04-11 17:33:00,33.0,-99.9,-100.00,NNE,13,12.0,-999.0,0,-99.99,,,-99.99,,2013-04-11 22:33:00,
2013-04-11 17:44:00,33.0,-99.9,-100.00,North,9,18.0,-999.0,0,-99.99,,,-99.99,,2013-04-11 22:44:00,
2013-04-11 17:53:00,33.0,-99.9,-100.00,NNE,12,17.0,-999.0,0,-99.99,,,-99.99,,2013-04-11 22:53:00,
2013-04-11 18:04:00,33.0,-99.9,-100.00,NNE,20,13.0,-999.0,0,-99.99,,,-99.99,,2013-04-11 23:04:00,
2013-04-11 18:13:00,33.0,-99.9,-100.00,NNE,16,17.0,-999.0,0,-99.99,,,-99.99,,2013-04-11 23:13:00,
2013-04-11 18:23:00,33.0,-99.9,-100.00,North,7,14.0,-999.0,0,-99.99,,,-99.99,,2013-04-11 23:23:00,
2013-04-11 18:33:00,33.0,-99.9,-100.00,NNE,12,12.0,-999.0,0,-99.99,,,-99.99,,2013-04-11 23:33:00,
2013-04-11 18:43:00,33.0,-99.9,-100.00,North,3,10.0,-999.0,0,-99.99,,,-99.99,,2013-04-11 23:43:00,
2013-04-11 18:54:00,33.0,-99.9,-100.00,North,10,12.0,-999.0,0,-99.99,,,-99.99,,2013-04-11 23:54:00,
2013-04-11 19:02:00,33.0,-99.9,-100.00,South,173,9.0,-999.0,0,-99.99,,,-99.99,,2013-04-12 00:02:00,
2013-04-11 19:12:00,33.0,-99.9,-100.00,North,11,10.0,-999.0,0,-99.99,,,-99.99,,2013-04-12 00:12:00,
2013-04-11 19:22:00,33.0,-99.9,-100.00,North,5,12.0,-999.0,0,-99.99,,,-99.99,,2013-04-12 00:22:00,
2013-04-11 19:33:00,33.0,-99.9,-100.00,North,8,11.0,-999.0,0,-99.99,,,-99.99,,2013-04-12 00:33:00,
2013-04-11 19:43:00,33.0,-99.9,-100.00,North,8,11.0,-999.0,0,-99.99,,,-99.99,,2013-04-12 00:43:00,
2013-04-11 19:53:00,32.0,-99.9,-100.00,North,2,10.0,-999.0,0,-99.99,,,-99.99,,2013-04-12 00:53:00,
2013-04-11 20:03:00,32.0,-99.9,-100.00,North,8,8.0,-999.0,0,-99.99,,,-99.99,,2013-04-12 01:03:00,
2013-04-11 20:12:00,32.0,-99.9,-100.00,North,-999,10.0,-999.0,0,-99.99,,,-99.99,,2013-04-12 01:12:00,
2013-04-11 20:23:00,32.0,-99.9,-100.00,East,87,13.0,-999.0,0,-99.99,,,-99.99,,2013-04-12 01:23:00,
2013-04-11 20:33:00,32.0,-99.9,-100.00,North,-999,11.0,-999.0,0,-99.99,,,-99.99,,2013-04-12 01:33:00,
2013-04-11 20:43:00,31.0,-99.9,-100.00,West,259,13.0,-999.0,0,-99.99,,,-99.99,,2013-04-12 01:43:00,
2013-04-11 20:53:00,32.0,-99.9,-100.00,North,-999,12.0,-999.0,0,-99.99,,,-99.99,,2013-04-12 01:53:00,
2013-04-11 21:03:00,31.0,-99.9,-100.00,East,87,11.0,-999.0,0,-99.99,,,-99.99,,2013-04-12 02:03:00,
2013-04-11 21:13:00,31.0,-99.9,-100.00,West,264,13.0,-999.0,0,-99.99,,,-99.99,,2013-04-12 02:13:00,
2013-04-11 21:23:00,31.0,-99.9,-100.00,North,-999,13.0,-999.0,0,-99.99,,,-99.99,,2013-04-12 02:23:00,
2013-04-11 21:33:00,31.0,-99.9,-100.00,North,-999,13.0,-999.0,0,-99.99,,,-99.99,,2013-04-12 02:33:00,
2013-04-11 21:42:00,31.0,-99.9,-100.00,North,-999,12.0,-999.0,0,-99.99,,,-99.99,,2013-04-12 02:42:00,
2013-04-11 21:53:00,31.0,-99.9,-100.00,North,-999,15.0,-999.0,0,-99.99,,,-99.99,,2013-04-12 02:53:00,
2013-04-11 22:02:00,31.0,-99.9,-100.00,North,-999,14.0,-999.0,0,-99.99,,,-99.99,,2013-04-12 03:02:00,
2013-04-11 22:12:00,31.0,-99.9,-100.00,East,88,18.0,-999.0,0,-99.99,,,-99.99,,2013-04-12 03:12:00,
2013-04-11 22:22:00,31.0,-99.9,-100.00,North,-999,11.0,-999.0,0,-99.99,,,-99.99,,2013-04-12 03:22:00,
2013-04-11 22:33:00,31.0,-99.9,-100.00,North,-999,20.0,-999.0,0,-99.99,,,-99.99,,2013-04-12 03:33:00,
2013-04-11 22:43:00,31.0,-99.9,-100.00,North,-999,17.0,-999.0,0,-99.99,,,-99.99,,2013-04-12 03:43:00,
2013-04-11 22:53:00,31.0,-99.9,-100.00,South,174,13.0,-999.0,0,-99.99,,,-99.99,,2013-04-12 03:53:00,
2013-04-11 23:03:00,31.0,-99.9,-100.00,South,174,13.0,-999.0,0,-99.99,,,-99.99,,2013-04-12 04:03:00,
2013-04-11 23:13:00,31.0,-99.9,-100.00,North,-999,15.0,-999.0,0,-99.99,,,-99.99,,2013-04-12 04:13:00,
2013-04-11 23:23:00,31.0,-99.9,-100.00,North,-999,16.0,-999.0,0,-99.99,,,-99.99,,2013-04-12 04:23:00,
2013-04-11 23:34:00,31.0,-99.9,-100.00,North,-999,20.0,-999.0,0,-99.99,,,-99.99,,2013-04-12 04:34:00,
2013-04-11 23:43:00,31.0,-99.9,-100.00,West,259,15.0,-999.0,0,-99.99,,,-99.99,,2013-04-12 04:43:00,
2013-04-11 23:53:00,31.0,-99.9,-100.00,East,92,17.0,-999.0,0,-99.99,,,-99.99,,2013-04-12 04:53:00,